Retour au catalogue

BALKAN-1

ActifRadio amateurSSO
NORAD 62611·PAYLOAD·🇧🇬 Bulgaria

Lancé Jan 14, 2025 depuis Vandenberg Space Force Base

Loading…

Prochains Passages (prochaines 24 heures)

TLE

FraisSource: Space-Track

Époque: Sep 14, 2026, 22:35 UTC

1 62611U 25009C   26257.94124152  .00005574  00000-0  21920-3 0  9990
2 62611  97.3857 336.0885 0007165  31.5511 328.6156 15.26040293 92447

Suivez BALKAN-1 en temps réel avec AllMySat

Download on the App Store